Location: Arpaise
(41.0333°N, 14.7333°E)
Time: 08:16:13
(UTC+00:00)

Cosmos 2278 Rocket - Pass Details

Date: 05 July 2020
Orbit: 841 x 846 km, 71.0° (Epoch: 05 August)

Event Time Altitude Azimuth Distance (km) Brightness Sun altitude
Rises 21:02:53 0° 340° (NNW) 3,413 6.9 -20.2°
Reaches altitude 10° 21:05:26 10° 346° (NNW) 2,474 5.7 -20.4°
Maximum altitude 21:10:56 50° 62° (ENE) 1,072 2.7 -20.9°
Enters shadow 21:12:55 35° 113° (ESE) 1,337 2.8 -21.1°
